Location: Halfweg
(53.1000°N, 6.6000°E)
Time: 11:48:59
(UTC+00:00)

Cosmos 1452 Rocket - Pass Details

Date: 15 May 2026
Orbit: 763 x 770 km, 74.1° (Epoch: 7 June)

Event Time Altitude Azimuth Distance (km) Brightness Sun altitude
Rises 20:04:00 0° 217° (SW) 3,218 6.7 -5.3°
Reaches altitude 10° 20:06:25 10° 221° (SW) 2,296 6.0 -5.6°
Maximum altitude 20:11:33 58° 301° (WNW) 890 4.3 -6.2°
Drops below altitude 10° 20:16:44 10° 21° (NNE) 2,313 6.3 -6.7°
Sets 20:19:10 0° 25° (NNE) 3,244 7.0 -7.0°
